Time,TemperatureF,DewpointF,PressureIn,WindDirection,WindDirectionDegrees,WindSpeedMPH,WindSpeedGustMPH,Humidity,HourlyPrecipIn,Conditions,Clouds,dailyrainin,SoftwareType,DateUTC
2013-06-23 00:02:00,70.6,63.2,29.71,SSW,194,0.0,0.0,77,0.00,,,0.00,WUHU216DAVISVP2,2013-06-23 05:02:00,
2013-06-23 00:07:00,70.6,63.2,29.71,SSW,194,0.0,0.0,77,0.00,,,0.00,WUHU216DAVISVP2,2013-06-23 05:07:00,
2013-06-23 00:12:00,70.5,63.1,29.71,SSW,194,0.0,0.0,77,0.00,,,0.00,WUHU216DAVISVP2,2013-06-23 05:12:00,
2013-06-23 00:17:00,70.5,63.1,29.70,SSW,194,0.0,0.0,77,0.00,,,0.00,WUHU216DAVISVP2,2013-06-23 05:17:00,
2013-06-23 00:22:00,70.5,63.1,29.70,SSW,194,0.0,0.0,77,0.00,,,0.00,WUHU216DAVISVP2,2013-06-23 05:22:00,
2013-06-23 00:27:00,70.4,63.3,29.70,SSW,194,0.0,0.0,78,0.00,,,0.00,WUHU216DAVISVP2,2013-06-23 05:27:00,
2013-06-23 00:32:00,70.3,63.6,29.69,SSW,194,0.0,0.0,79,0.00,,,0.00,WUHU216DAVISVP2,2013-06-23 05:32:00,
2013-06-23 00:37:00,70.2,63.5,29.69,SSW,194,0.0,0.0,79,0.00,,,0.00,WUHU216DAVISVP2,2013-06-23 05:37:00,
2013-06-23 00:42:00,70.0,63.6,29.69,SSW,194,0.0,0.0,80,0.00,,,0.00,WUHU216DAVISVP2,2013-06-23 05:42:00,
2013-06-23 00:47:00,69.9,63.5,29.68,SSW,194,0.0,0.0,80,0.00,,,0.00,WUHU216DAVISVP2,2013-06-23 05:47:00,
2013-06-23 00:52:00,69.8,63.8,29.69,WNW,296,0.0,0.0,81,0.00,,,0.00,WUHU216DAVISVP2,2013-06-23 05:52:00,
2013-06-23 00:57:00,69.7,63.7,29.68,WNW,296,0.0,0.0,81,0.00,,,0.00,WUHU216DAVISVP2,2013-06-23 05:57:00,
2013-06-23 01:01:00,69.5,63.5,29.69,WNW,295,0.0,0.0,81,0.00,,,0.00,WUHU216DAVISVP2,2013-06-23 06:01:00,
2013-06-23 01:06:00,69.4,63.7,29.71,WNW,296,0.0,0.0,82,0.00,,,0.00,WUHU216DAVISVP2,2013-06-23 06:06:00,
2013-06-23 01:11:00,69.3,63.6,29.71,WNW,287,0.0,0.0,82,0.00,,,0.00,WUHU216DAVISVP2,2013-06-23 06:11:00,
2013-06-23 01:16:00,69.2,63.5,29.71,WNW,287,0.0,0.0,82,0.00,,,0.00,WUHU216DAVISVP2,2013-06-23 06:16:00,
2013-06-23 01:21:00,69.2,63.9,29.71,WNW,288,0.0,0.0,83,0.00,,,0.00,WUHU216DAVISVP2,2013-06-23 06:21:00,
2013-06-23 01:26:00,69.1,63.8,29.71,WNW,288,0.0,0.0,83,0.00,,,0.00,WUHU216DAVISVP2,2013-06-23 06:26:00,
2013-06-23 01:31:00,69.0,63.7,29.70,WNW,287,0.0,0.0,83,0.00,,,0.00,WUHU216DAVISVP2,2013-06-23 06:31:00,
2013-06-23 01:36:00,69.0,63.7,29.69,WNW,288,0.0,0.0,83,0.00,,,0.00,WUHU216DAVISVP2,2013-06-23 06:36:00,
2013-06-23 01:41:00,69.0,63.7,29.68,WNW,288,0.0,0.0,83,0.00,,,0.00,WUHU216DAVISVP2,2013-06-23 06:41:00,
2013-06-23 01:46:00,69.0,63.7,29.68,WNW,287,0.0,0.0,83,0.00,,,0.00,WUHU216DAVISVP2,2013-06-23 06:46:00,
2013-06-23 01:51:00,68.9,63.6,29.68,WNW,287,0.0,0.0,83,0.00,,,0.00,WUHU216DAVISVP2,2013-06-23 06:51:00,
2013-06-23 01:56:00,68.8,63.8,29.68,WNW,287,0.0,0.0,84,0.00,,,0.00,WUHU216DAVISVP2,2013-06-23 06:56:00,
2013-06-23 02:01:00,68.8,63.8,29.68,WNW,289,1.0,1.0,84,0.00,,,0.00,WUHU216DAVISVP2,2013-06-23 07:01:00,
2013-06-23 02:06:00,68.8,63.8,29.68,WNW,289,0.0,1.0,84,0.00,,,0.00,WUHU216DAVISVP2,2013-06-23 07:06:00,
2013-06-23 02:11:00,68.7,63.7,29.68,WNW,289,0.0,0.0,84,0.00,,,0.00,WUHU216DAVISVP2,2013-06-23 07:11:00,
2013-06-23 02:16:00,68.6,63.6,29.68,WNW,288,0.0,2.0,84,0.00,,,0.00,WUHU216DAVISVP2,2013-06-23 07:16:00,
2013-06-23 02:21:00,68.7,63.7,29.67,WNW,290,0.0,2.0,84,0.00,,,0.00,WUHU216DAVISVP2,2013-06-23 07:21:00,
2013-06-23 02:26:00,68.6,63.6,29.67,WNW,288,0.0,0.0,84,0.00,,,0.00,WUHU216DAVISVP2,2013-06-23 07:26:00,
2013-06-23 02:31:00,68.5,63.5,29.67,WNW,287,0.0,0.0,84,0.00,,,0.00,WUHU216DAVISVP2,2013-06-23 07:31:00,
2013-06-23 02:36:00,68.5,63.5,29.67,WNW,287,0.0,0.0,84,0.00,,,0.00,WUHU216DAVISVP2,2013-06-23 07:36:00,
2013-06-23 02:41:00,68.4,63.4,29.67,WNW,288,0.0,0.0,84,0.00,,,0.00,WUHU216DAVISVP2,2013-06-23 07:41:00,
2013-06-23 02:46:00,68.4,63.4,29.66,WNW,287,0.0,0.0,84,0.00,,,0.00,WUHU216DAVISVP2,2013-06-23 07:46:00,
2013-06-23 02:51:00,68.3,63.3,29.66,WNW,287,0.0,0.0,84,0.00,,,0.00,WUHU216DAVISVP2,2013-06-23 07:51:00,
2013-06-23 02:56:00,68.2,63.2,29.66,WNW,288,0.0,0.0,84,0.00,,,0.00,WUHU216DAVISVP2,2013-06-23 07:56:00,
2013-06-23 03:01:00,68.2,63.2,29.66,WNW,288,0.0,0.0,84,0.00,,,0.00,WUHU216DAVISVP2,2013-06-23 08:01:00,
2013-06-23 03:06:00,68.1,63.1,29.67,WNW,288,0.0,0.0,84,0.00,,,0.00,WUHU216DAVISVP2,2013-06-23 08:06:00,
2013-06-23 03:11:00,68.1,63.1,29.66,West,271,0.0,0.0,84,0.00,,,0.00,WUHU216DAVISVP2,2013-06-23 08:11:00,
2013-06-23 03:16:00,68.0,63.0,29.66,West,277,0.0,1.0,84,0.00,,,0.00,WUHU216DAVISVP2,2013-06-23 08:16:00,
2013-06-23 03:21:00,68.0,63.0,29.66,West,277,0.0,1.0,84,0.00,,,0.00,WUHU216DAVISVP2,2013-06-23 08:21:00,
2013-06-23 03:26:00,68.0,62.7,29.66,WSW,254,0.0,0.0,83,0.00,,,0.00,WUHU216DAVISVP2,2013-06-23 08:26:00,
2013-06-23 03:31:00,68.0,62.7,29.67,WSW,256,0.0,0.0,83,0.00,,,0.00,WUHU216DAVISVP2,2013-06-23 08:31:00,
2013-06-23 03:36:00,68.0,62.7,29.67,WSW,244,0.0,0.0,83,0.00,,,0.00,WUHU216DAVISVP2,2013-06-23 08:36:00,
2013-06-23 03:41:00,68.0,62.7,29.67,WSW,244,0.0,0.0,83,0.00,,,0.00,WUHU216DAVISVP2,2013-06-23 08:41:00,
2013-06-23 03:46:00,68.0,62.7,29.67,WSW,244,0.0,0.0,83,0.00,,,0.00,WUHU216DAVISVP2,2013-06-23 08:46:00,
2013-06-23 03:51:00,68.0,62.7,29.67,WSW,244,0.0,0.0,83,0.00,,,0.00,WUHU216DAVISVP2,2013-06-23 08:51:00,
2013-06-23 03:56:00,68.1,62.8,29.66,WSW,244,0.0,0.0,83,0.00,,,0.00,WUHU216DAVISVP2,2013-06-23 08:56:00,
2013-06-23 04:01:00,68.0,62.7,29.66,WSW,244,0.0,0.0,83,0.00,,,0.00,WUHU216DAVISVP2,2013-06-23 09:01:00,
2013-06-23 04:06:00,67.9,62.9,29.66,WSW,244,0.0,0.0,84,0.00,,,0.00,WUHU216DAVISVP2,2013-06-23 09:06:00,
2013-06-23 04:11:00,67.7,63.0,29.66,WSW,244,0.0,0.0,85,0.00,,,0.00,WUHU216DAVISVP2,2013-06-23 09:11:00,
2013-06-23 04:16:00,67.5,62.9,29.66,WSW,244,0.0,0.0,85,0.00,,,0.00,WUHU216DAVISVP2,2013-06-23 09:16:00,
2013-06-23 04:21:00,67.2,62.9,29.66,WSW,244,0.0,0.0,86,0.00,,,0.00,WUHU216DAVISVP2,2013-06-23 09:21:00,
2013-06-23 04:26:00,67.0,62.7,29.66,WSW,244,0.0,0.0,86,0.00,,,0.00,WUHU216DAVISVP2,2013-06-23 09:26:00,
2013-06-23 04:31:00,66.9,62.9,29.66,WSW,244,0.0,0.0,87,0.00,,,0.00,WUHU216DAVISVP2,2013-06-23 09:31:00,
2013-06-23 04:36:00,66.9,62.9,29.66,WSW,244,0.0,0.0,87,0.00,,,0.00,WUHU216DAVISVP2,2013-06-23 09:36:00,
2013-06-23 04:41:00,66.8,62.8,29.65,WSW,244,0.0,0.0,87,0.00,,,0.00,WUHU216DAVISVP2,2013-06-23 09:41:00,
2013-06-23 04:46:00,66.7,63.0,29.65,WSW,244,0.0,0.0,88,0.00,,,0.00,WUHU216DAVISVP2,2013-06-23 09:46:00,
2013-06-23 04:51:00,66.7,63.0,29.65,WSW,244,0.0,0.0,88,0.00,,,0.00,WUHU216DAVISVP2,2013-06-23 09:51:00,
2013-06-23 04:56:00,66.8,63.1,29.65,WSW,244,0.0,0.0,88,0.00,,,0.00,WUHU216DAVISVP2,2013-06-23 09:56:00,
2013-06-23 05:01:00,66.7,63.0,29.64,WSW,244,0.0,0.0,88,0.00,,,0.00,WUHU216DAVISVP2,2013-06-23 10:01:00,
2013-06-23 05:06:00,66.7,63.0,29.64,WSW,244,0.0,0.0,88,0.00,,,0.00,WUHU216DAVISVP2,2013-06-23 10:06:00,
2013-06-23 05:11:00,66.7,63.3,29.63,WSW,244,0.0,0.0,89,0.00,,,0.00,WUHU216DAVISVP2,2013-06-23 10:11:00,
2013-06-23 05:16:00,66.7,63.3,29.62,WSW,244,0.0,0.0,89,0.00,,,0.00,WUHU216DAVISVP2,2013-06-23 10:16:00,
2013-06-23 05:21:00,66.7,63.3,29.62,WSW,244,0.0,0.0,89,0.00,,,0.00,WUHU216DAVISVP2,2013-06-23 10:21:00,
2013-06-23 05:26:00,66.6,63.2,29.62,WSW,244,0.0,0.0,89,0.00,,,0.00,WUHU216DAVISVP2,2013-06-23 10:26:00,
2013-06-23 05:31:00,66.7,63.3,29.62,WSW,245,0.0,0.0,89,0.00,,,0.00,WUHU216DAVISVP2,2013-06-23 10:31:00,
2013-06-23 05:36:00,66.6,63.2,29.62,WSW,244,0.0,0.0,89,0.00,,,0.00,WUHU216DAVISVP2,2013-06-23 10:36:00,
2013-06-23 05:41:00,66.6,63.2,29.62,WSW,244,0.0,0.0,89,0.00,,,0.00,WUHU216DAVISVP2,2013-06-23 10:41:00,
2013-06-23 05:46:00,66.6,63.2,29.61,WSW,244,0.0,0.0,89,0.00,,,0.00,WUHU216DAVISVP2,2013-06-23 10:46:00,
2013-06-23 05:51:00,66.7,63.3,29.61,WSW,244,0.0,0.0,89,0.00,,,0.00,WUHU216DAVISVP2,2013-06-23 10:51:00,
2013-06-23 05:56:00,66.7,63.3,29.61,WSW,244,0.0,0.0,89,0.00,,,0.00,WUHU216DAVISVP2,2013-06-23 10:56:00,
2013-06-23 06:01:00,66.7,63.3,29.60,WSW,244,0.0,0.0,89,0.00,,,0.00,WUHU216DAVISVP2,2013-06-23 11:01:00,
2013-06-23 06:06:00,66.7,63.3,29.60,WSW,244,0.0,0.0,89,0.00,,,0.00,WUHU216DAVISVP2,2013-06-23 11:06:00,
2013-06-23 06:11:00,66.7,63.3,29.59,WSW,244,0.0,0.0,89,0.00,,,0.00,WUHU216DAVISVP2,2013-06-23 11:11:00,
2013-06-23 06:16:00,66.7,63.3,29.58,WSW,244,0.0,0.0,89,0.00,,,0.00,WUHU216DAVISVP2,2013-06-23 11:16:00,
2013-06-23 06:21:00,66.7,63.3,29.58,WSW,244,0.0,0.0,89,0.00,,,0.00,WUHU216DAVISVP2,2013-06-23 11:21:00,
2013-06-23 06:26:00,66.6,63.2,29.57,WSW,244,0.0,0.0,89,0.00,,,0.00,WUHU216DAVISVP2,2013-06-23 11:26:00,
2013-06-23 06:31:00,66.6,63.2,29.57,WSW,244,0.0,0.0,89,0.00,,,0.00,WUHU216DAVISVP2,2013-06-23 11:31:00,
2013-06-23 06:36:00,66.6,63.2,29.57,WSW,244,0.0,0.0,89,0.00,,,0.00,WUHU216DAVISVP2,2013-06-23 11:36:00,
2013-06-23 06:41:00,66.6,63.2,29.57,WSW,244,0.0,0.0,89,0.00,,,0.00,WUHU216DAVISVP2,2013-06-23 11:41:00,
2013-06-23 06:46:00,66.6,63.2,29.57,WSW,244,0.0,0.0,89,0.00,,,0.00,WUHU216DAVISVP2,2013-06-23 11:46:00,
2013-06-23 06:51:00,66.5,63.1,29.57,WSW,244,0.0,0.0,89,0.00,,,0.00,WUHU216DAVISVP2,2013-06-23 11:51:00,
2013-06-23 06:56:00,66.6,63.6,29.57,WSW,244,0.0,0.0,90,0.00,,,0.00,WUHU216DAVISVP2,2013-06-23 11:56:00,
2013-06-23 07:01:00,66.8,63.8,29.56,WSW,245,0.0,0.0,90,0.00,,,0.00,WUHU216DAVISVP2,2013-06-23 12:01:00,
2013-06-23 07:06:00,66.9,63.9,29.56,WSW,244,0.0,0.0,90,0.00,,,0.00,WUHU216DAVISVP2,2013-06-23 12:06:00,
2013-06-23 07:11:00,66.8,63.8,29.56,WSW,244,0.0,0.0,90,0.00,,,0.00,WUHU216DAVISVP2,2013-06-23 12:11:00,
2013-06-23 07:16:00,66.8,63.8,29.57,WSW,244,0.0,0.0,90,0.00,,,0.00,WUHU216DAVISVP2,2013-06-23 12:16:00,
2013-06-23 07:21:00,66.8,63.8,29.58,WSW,245,0.0,0.0,90,0.00,,,0.00,WUHU216DAVISVP2,2013-06-23 12:21:00,
2013-06-23 07:26:00,66.8,63.8,29.58,WSW,244,0.0,0.0,90,0.00,,,0.00,WUHU216DAVISVP2,2013-06-23 12:26:00,
2013-06-23 07:31:00,66.8,63.8,29.58,WSW,244,0.0,0.0,90,0.00,,,0.00,WUHU216DAVISVP2,2013-06-23 12:31:00,
2013-06-23 07:36:00,66.8,63.8,29.58,WSW,244,0.0,0.0,90,0.00,,,0.00,WUHU216DAVISVP2,2013-06-23 12:36:00,
2013-06-23 07:41:00,66.8,63.8,29.58,WSW,244,0.0,0.0,90,0.00,,,0.00,WUHU216DAVISVP2,2013-06-23 12:41:00,
2013-06-23 07:46:00,66.8,63.8,29.58,WSW,245,0.0,0.0,90,0.00,,,0.00,WUHU216DAVISVP2,2013-06-23 12:46:00,
2013-06-23 07:51:00,66.7,63.7,29.58,WSW,244,0.0,0.0,90,0.00,,,0.00,WUHU216DAVISVP2,2013-06-23 12:51:00,
2013-06-23 07:56:00,66.6,63.6,29.58,WSW,244,0.0,0.0,90,0.00,,,0.00,WUHU216DAVISVP2,2013-06-23 12:56:00,
2013-06-23 08:01:00,66.6,63.6,29.58,WSW,244,0.0,0.0,90,0.00,,,0.00,WUHU216DAVISVP2,2013-06-23 13:01:00,
2013-06-23 08:06:00,66.5,63.5,29.58,WSW,244,0.0,0.0,90,0.00,,,0.00,WUHU216DAVISVP2,2013-06-23 13:06:00,
2013-06-23 08:11:00,66.6,63.6,29.58,WSW,244,0.0,0.0,90,0.00,,,0.00,WUHU216DAVISVP2,2013-06-23 13:11:00,
2013-06-23 08:16:00,66.6,63.6,29.59,WSW,244,0.0,0.0,90,0.00,,,0.00,WUHU216DAVISVP2,2013-06-23 13:16:00,
2013-06-23 08:21:00,66.5,63.5,29.59,WSW,244,0.0,0.0,90,0.00,,,0.00,WUHU216DAVISVP2,2013-06-23 13:21:00,
2013-06-23 08:26:00,66.3,63.3,29.59,SW,223,0.0,4.0,90,0.00,,,0.00,WUHU216DAVISVP2,2013-06-23 13:26:00,
2013-06-23 08:31:00,66.2,63.2,29.59,SW,224,0.0,4.0,90,0.00,,,0.00,WUHU216DAVISVP2,2013-06-23 13:31:00,
2013-06-23 08:36:00,66.1,63.1,29.59,SW,224,0.0,0.0,90,0.00,,,0.00,WUHU216DAVISVP2,2013-06-23 13:36:00,
2013-06-23 08:41:00,66.1,63.1,29.59,SW,223,0.0,0.0,90,0.00,,,0.00,WUHU216DAVISVP2,2013-06-23 13:41:00,
2013-06-23 08:46:00,66.0,63.0,29.59,SW,225,0.0,0.0,90,0.00,,,0.00,WUHU216DAVISVP2,2013-06-23 13:46:00,
2013-06-23 08:51:00,66.0,63.0,29.59,SW,225,0.0,0.0,90,0.00,,,0.00,WUHU216DAVISVP2,2013-06-23 13:51:00,
2013-06-23 08:56:00,66.0,63.0,29.59,SW,224,0.0,0.0,90,0.00,,,0.00,WUHU216DAVISVP2,2013-06-23 13:56:00,
2013-06-23 09:01:00,66.1,63.1,29.59,SW,224,0.0,0.0,90,0.00,,,0.00,WUHU216DAVISVP2,2013-06-23 14:01:00,
2013-06-23 09:06:00,66.0,63.0,29.59,SW,225,0.0,0.0,90,0.00,,,0.00,WUHU216DAVISVP2,2013-06-23 14:06:00,
2013-06-23 09:11:00,66.1,63.1,29.59,SW,223,0.0,1.0,90,0.00,,,0.00,WUHU216DAVISVP2,2013-06-23 14:11:00,
2013-06-23 09:16:00,66.2,63.2,29.58,SW,225,0.0,1.0,90,0.00,,,0.00,WUHU216DAVISVP2,2013-06-23 14:16:00,
2013-06-23 09:21:00,66.6,63.6,29.58,SW,224,0.0,0.0,90,0.00,,,0.00,WUHU216DAVISVP2,2013-06-23 14:21:00,
2013-06-23 09:26:00,67.1,64.0,29.58,SW,223,0.0,3.0,90,0.00,,,0.00,WUHU216DAVISVP2,2013-06-23 14:26:00,
2013-06-23 09:32:00,67.3,64.2,29.58,SW,223,0.0,3.0,90,0.00,,,0.00,WUHU216DAVISVP2,2013-06-23 14:32:00,
2013-06-23 09:37:00,67.7,64.6,29.58,SW,217,0.0,4.0,90,0.00,,,0.00,WUHU216DAVISVP2,2013-06-23 14:37:00,
2013-06-23 09:42:00,67.8,64.7,29.57,SW,218,0.0,4.0,90,0.00,,,0.00,WUHU216DAVISVP2,2013-06-23 14:42:00,
2013-06-23 09:47:00,67.9,64.8,29.57,SW,218,0.0,1.0,90,0.00,,,0.00,WUHU216DAVISVP2,2013-06-23 14:47:00,
2013-06-23 09:52:00,68.0,64.9,29.58,South,187,0.0,6.0,90,0.00,,,0.00,WUHU216DAVISVP2,2013-06-23 14:52:00,
2013-06-23 09:57:00,67.9,64.8,29.58,WSW,257,0.0,9.0,90,0.00,,,0.00,WUHU216DAVISVP2,2013-06-23 14:57:00,
2013-06-23 10:02:00,67.9,64.8,29.58,SW,227,0.0,9.0,90,0.00,,,0.00,WUHU216DAVISVP2,2013-06-23 15:02:00,
2013-06-23 10:07:00,68.0,64.9,29.58,SSW,200,0.0,7.0,90,0.00,,,0.00,WUHU216DAVISVP2,2013-06-23 15:07:00,
2013-06-23 10:12:00,67.9,64.8,29.58,SW,229,0.0,10.0,90,0.00,,,0.00,WUHU216DAVISVP2,2013-06-23 15:12:00,
2013-06-23 10:17:00,68.0,64.9,29.57,South,169,0.0,10.0,90,0.00,,,0.00,WUHU216DAVISVP2,2013-06-23 15:17:00,
2013-06-23 10:22:00,68.3,65.2,29.58,WSW,248,0.0,13.0,90,0.00,,,0.00,WUHU216DAVISVP2,2013-06-23 15:22:00,
2013-06-23 10:27:00,67.8,64.4,29.58,West,271,0.0,13.0,89,0.00,,,0.00,WUHU216DAVISVP2,2013-06-23 15:27:00,
2013-06-23 10:32:00,67.5,63.8,29.58,West,268,0.0,7.0,88,0.00,,,0.00,WUHU216DAVISVP2,2013-06-23 15:32:00,
2013-06-23 10:37:00,67.4,63.4,29.58,WSW,252,0.0,7.0,87,0.00,,,0.00,WUHU216DAVISVP2,2013-06-23 15:37:00,
2013-06-23 10:42:00,67.9,63.6,29.58,WSW,254,0.0,7.0,86,0.00,,,0.00,WUHU216DAVISVP2,2013-06-23 15:42:00,
2013-06-23 10:47:00,68.2,63.2,29.58,West,260,2.0,9.0,84,0.00,,,0.00,WUHU216DAVISVP2,2013-06-23 15:47:00,
2013-06-23 10:52:00,68.8,63.1,29.58,West,273,0.0,9.0,82,0.00,,,0.00,WUHU216DAVISVP2,2013-06-23 15:52:00,
2013-06-23 10:57:00,69.6,62.9,29.59,WNW,284,0.0,11.0,79,0.00,,,0.00,WUHU216DAVISVP2,2013-06-23 15:57:00,
2013-06-23 11:02:00,70.1,62.7,29.59,SW,231,6.0,12.0,77,0.00,,,0.00,WUHU216DAVISVP2,2013-06-23 16:02:00,
2013-06-23 11:07:00,70.3,62.5,29.59,WSW,256,2.0,12.0,76,0.00,,,0.00,WUHU216DAVISVP2,2013-06-23 16:07:00,
2013-06-23 11:12:00,70.3,61.8,29.59,West,276,1.0,10.0,74,0.00,,,0.00,WUHU216DAVISVP2,2013-06-23 16:12:00,
2013-06-23 11:17:00,70.8,61.9,29.59,NNW,331,0.0,6.0,73,0.00,,,0.00,WUHU216DAVISVP2,2013-06-23 16:17:00,
2013-06-23 11:22:00,71.1,62.2,29.59,WSW,250,1.0,11.0,73,0.00,,,0.00,WUHU216DAVISVP2,2013-06-23 16:22:00,
2013-06-23 11:27:00,70.9,61.6,29.59,WNW,291,3.0,11.0,72,0.00,,,0.00,WUHU216DAVISVP2,2013-06-23 16:27:00,
2013-06-23 11:32:00,70.6,61.3,29.60,West,277,0.0,9.0,72,0.00,,,0.00,WUHU216DAVISVP2,2013-06-23 16:32:00,
2013-06-23 11:37:00,70.6,61.7,29.59,West,262,0.0,7.0,73,0.00,,,0.00,WUHU216DAVISVP2,2013-06-23 16:37:00,
2013-06-23 11:42:00,70.9,61.2,29.59,SSW,209,0.0,6.0,71,0.00,,,0.00,WUHU216DAVISVP2,2013-06-23 16:42:00,
2013-06-23 11:47:00,71.1,61.4,29.60,West,269,0.0,5.0,71,0.00,,,0.00,WUHU216DAVISVP2,2013-06-23 16:47:00,
2013-06-23 11:52:00,71.0,60.9,29.60,WSW,254,0.0,11.0,70,0.00,,,0.00,WUHU216DAVISVP2,2013-06-23 16:52:00,
2013-06-23 11:57:00,71.0,61.3,29.59,SSW,193,0.0,11.0,71,0.00,,,0.00,WUHU216DAVISVP2,2013-06-23 16:57:00,
2013-06-23 12:02:00,71.0,60.9,29.60,WSW,238,2.0,10.0,70,0.00,,,0.00,WUHU216DAVISVP2,2013-06-23 17:02:00,
2013-06-23 12:07:00,71.1,60.6,29.60,WNW,298,0.0,10.0,69,0.00,,,0.00,WUHU216DAVISVP2,2013-06-23 17:07:00,
2013-06-23 12:12:00,71.6,61.1,29.60,WSW,257,1.0,11.0,69,0.00,,,0.00,WUHU216DAVISVP2,2013-06-23 17:12:00,
2013-06-23 12:17:00,72.3,60.9,29.60,SW,214,3.0,11.0,67,0.00,,,0.00,WUHU216DAVISVP2,2013-06-23 17:17:00,
2013-06-23 12:22:00,72.9,61.1,29.60,WNW,286,2.0,9.0,66,0.00,,,0.00,WUHU216DAVISVP2,2013-06-23 17:22:00,
2013-06-23 12:27:00,73.6,61.3,29.61,West,269,4.0,9.0,65,0.00,,,0.00,WUHU216DAVISVP2,2013-06-23 17:27:00,
2013-06-23 12:32:00,74.4,62.1,29.61,West,264,2.0,9.0,65,0.00,,,0.00,WUHU216DAVISVP2,2013-06-23 17:32:00,
2013-06-23 12:37:00,75.3,62.1,29.61,SSW,203,1.0,6.0,63,0.00,,,0.00,WUHU216DAVISVP2,2013-06-23 17:37:00,
2013-06-23 12:42:00,75.1,61.9,29.61,SW,225,0.0,7.0,63,0.00,,,0.00,WUHU216DAVISVP2,2013-06-23 17:42:00,
2013-06-23 12:47:00,75.4,62.1,29.61,WSW,254,1.0,8.0,63,0.00,,,0.00,WUHU216DAVISVP2,2013-06-23 17:47:00,
2013-06-23 12:52:00,75.4,62.1,29.61,WSW,240,7.0,11.0,63,0.00,,,0.00,WUHU216DAVISVP2,2013-06-23 17:52:00,
2013-06-23 12:57:00,75.8,62.1,29.61,West,269,0.0,11.0,62,0.00,,,0.00,WUHU216DAVISVP2,2013-06-23 17:57:00,
2013-06-23 13:02:00,76.2,62.4,29.61,WSW,242,0.0,11.0,62,0.00,,,0.00,WUHU216DAVISVP2,2013-06-23 18:02:00,
2013-06-23 13:07:00,76.8,63.0,29.61,WNW,294,1.0,5.0,62,0.00,,,0.00,WUHU216DAVISVP2,2013-06-23 18:07:00,
2013-06-23 13:12:00,77.3,62.1,29.61,West,268,1.0,16.0,59,0.00,,,0.00,WUHU216DAVISVP2,2013-06-23 18:12:00,
2013-06-23 13:17:00,77.4,62.2,29.60,WSW,244,0.0,16.0,59,0.00,,,0.00,WUHU216DAVISVP2,2013-06-23 18:17:00,
2013-06-23 13:22:00,77.6,61.9,29.60,WNW,287,0.0,10.0,58,0.00,,,0.00,WUHU216DAVISVP2,2013-06-23 18:22:00,
2013-06-23 13:27:00,77.9,62.6,29.61,SSW,211,1.0,7.0,59,0.00,,,0.00,WUHU216DAVISVP2,2013-06-23 18:27:00,
2013-06-23 13:32:00,78.1,62.3,29.61,West,272,0.0,6.0,58,0.00,,,0.00,WUHU216DAVISVP2,2013-06-23 18:32:00,
2013-06-23 13:37:00,78.5,62.2,29.61,West,262,0.0,6.0,57,0.00,,,0.00,WUHU216DAVISVP2,2013-06-23 18:37:00,
2013-06-23 13:42:00,79.1,62.3,29.61,WNW,292,2.0,7.0,56,0.00,,,0.00,WUHU216DAVISVP2,2013-06-23 18:42:00,
2013-06-23 13:47:00,78.7,61.4,29.61,SW,221,0.0,12.0,55,0.00,,,0.00,WUHU216DAVISVP2,2013-06-23 18:47:00,
2013-06-23 13:52:00,78.7,61.4,29.61,SW,231,3.0,13.0,55,0.00,,,0.00,WUHU216DAVISVP2,2013-06-23 18:52:00,
2013-06-23 13:57:00,78.3,62.0,29.61,SSW,203,0.0,13.0,57,0.00,,,0.00,WUHU216DAVISVP2,2013-06-23 18:57:00,
2013-06-23 14:02:00,78.9,61.5,29.61,WSW,245,0.0,7.0,55,0.00,,,0.00,WUHU216DAVISVP2,2013-06-23 19:02:00,
2013-06-23 14:07:00,79.1,61.7,29.61,SSW,211,0.0,7.0,55,0.00,,,0.00,WUHU216DAVISVP2,2013-06-23 19:07:00,
2013-06-23 14:12:00,78.9,61.0,29.62,South,191,2.0,4.0,54,0.00,,,0.00,WUHU216DAVISVP2,2013-06-23 19:12:00,
2013-06-23 14:17:00,79.0,61.6,29.62,NNW,342,7.0,7.0,55,0.00,,,0.00,WUHU216DAVISVP2,2013-06-23 19:17:00,
2013-06-23 14:22:00,79.5,59.9,29.62,SW,215,5.0,12.0,51,0.00,,,0.00,WUHU216DAVISVP2,2013-06-23 19:22:00,
2013-06-23 14:27:00,78.9,60.5,29.62,WSW,253,0.0,12.0,53,0.00,,,0.00,WUHU216DAVISVP2,2013-06-23 19:27:00,
2013-06-23 14:32:00,78.3,59.9,29.63,WSW,249,0.0,4.0,53,0.00,,,0.00,WUHU216DAVISVP2,2013-06-23 19:32:00,
2013-06-23 14:37:00,77.8,60.0,29.63,WSW,256,0.0,7.0,54,0.00,,,0.00,WUHU216DAVISVP2,2013-06-23 19:37:00,
2013-06-23 14:42:00,77.6,60.8,29.63,WSW,248,6.0,7.0,56,0.00,,,0.00,WUHU216DAVISVP2,2013-06-23 19:42:00,
2013-06-23 14:47:00,78.3,61.0,29.63,WNW,284,5.0,11.0,55,0.00,,,0.00,WUHU216DAVISVP2,2013-06-23 19:47:00,
2013-06-23 14:52:00,78.6,59.6,29.63,WSW,237,0.0,11.0,52,0.00,,,0.00,WUHU216DAVISVP2,2013-06-23 19:52:00,
2013-06-23 14:57:00,79.4,60.4,29.63,SW,225,2.0,10.0,52,0.00,,,0.00,WUHU216DAVISVP2,2013-06-23 19:57:00,
2013-06-23 15:02:00,80.1,60.5,29.63,SW,225,7.0,10.0,51,0.00,,,0.00,WUHU216DAVISVP2,2013-06-23 20:02:00,
2013-06-23 15:07:00,80.6,59.2,29.63,WNW,294,1.0,10.0,48,0.00,,,0.00,WUHU216DAVISVP2,2013-06-23 20:07:00,
2013-06-23 15:12:00,81.1,60.2,29.64,WSW,240,2.0,10.0,49,0.00,,,0.00,WUHU216DAVISVP2,2013-06-23 20:12:00,
2013-06-23 15:17:00,81.4,59.9,29.64,West,279,0.0,10.0,48,0.00,,,0.00,WUHU216DAVISVP2,2013-06-23 20:17:00,
2013-06-23 15:22:00,80.9,59.5,29.64,West,264,0.0,11.0,48,0.00,,,0.00,WUHU216DAVISVP2,2013-06-23 20:22:00,
2013-06-23 15:27:00,80.1,59.3,29.64,WSW,254,0.0,11.0,49,0.00,,,0.00,WUHU216DAVISVP2,2013-06-23 20:27:00,
2013-06-23 15:32:00,79.8,60.8,29.64,WNW,283,3.0,5.0,52,0.00,,,0.00,WUHU216DAVISVP2,2013-06-23 20:32:00,
2013-06-23 15:37:00,80.4,60.2,29.64,WSW,241,0.0,7.0,50,0.00,,,0.00,WUHU216DAVISVP2,2013-06-23 20:37:00,
2013-06-23 15:42:00,80.9,60.6,29.64,WSW,250,0.0,11.0,50,0.00,,,0.00,WUHU216DAVISVP2,2013-06-23 20:42:00,
2013-06-23 15:47:00,81.3,59.8,29.64,SSE,153,1.0,11.0,48,0.00,,,0.00,WUHU216DAVISVP2,2013-06-23 20:47:00,
2013-06-23 15:52:00,81.4,60.5,29.64,South,178,2.0,11.0,49,0.00,,,0.00,WUHU216DAVISVP2,2013-06-23 20:52:00,
2013-06-23 15:57:00,81.4,59.3,29.64,SW,234,0.0,10.0,47,0.00,,,0.00,WUHU216DAVISVP2,2013-06-23 20:57:00,
2013-06-23 16:02:00,81.3,58.6,29.64,WSW,255,5.0,10.0,46,0.00,,,0.00,WUHU216DAVISVP2,2013-06-23 21:02:00,
2013-06-23 16:07:00,80.9,58.8,29.64,SSW,192,0.0,9.0,47,0.00,,,0.00,WUHU216DAVISVP2,2013-06-23 21:07:00,
2013-06-23 16:12:00,80.4,59.0,29.64,WSW,254,8.0,12.0,48,0.00,,,0.00,WUHU216DAVISVP2,2013-06-23 21:12:00,
2013-06-23 16:17:00,80.1,59.9,29.64,SE,145,2.0,12.0,50,0.00,,,0.00,WUHU216DAVISVP2,2013-06-23 21:17:00,
2013-06-23 16:22:00,80.8,58.8,29.64,SW,216,6.0,14.0,47,0.00,,,0.00,WUHU216DAVISVP2,2013-06-23 21:22:00,
2013-06-23 16:27:00,81.1,57.1,29.65,WSW,252,4.0,14.0,44,0.00,,,0.00,WUHU216DAVISVP2,2013-06-23 21:27:00,
2013-06-23 16:32:00,81.4,57.4,29.64,SSW,213,1.0,9.0,44,0.00,,,0.00,WUHU216DAVISVP2,2013-06-23 21:32:00,
2013-06-23 16:37:00,81.5,56.8,29.65,SW,227,1.0,7.0,43,0.00,,,0.00,WUHU216DAVISVP2,2013-06-23 21:37:00,
2013-06-23 16:42:00,81.2,57.9,29.65,SSW,196,0.0,10.0,45,0.00,,,0.00,WUHU216DAVISVP2,2013-06-23 21:42:00,
2013-06-23 16:47:00,81.5,58.1,29.65,West,259,1.0,10.0,45,0.00,,,0.00,WUHU216DAVISVP2,2013-06-23 21:47:00,
2013-06-23 16:52:00,81.4,58.7,29.65,SSW,211,0.0,14.0,46,0.00,,,0.00,WUHU216DAVISVP2,2013-06-23 21:52:00,
2013-06-23 16:57:00,81.2,57.9,29.65,WSW,238,0.0,14.0,45,0.00,,,0.00,WUHU216DAVISVP2,2013-06-23 21:57:00,
2013-06-23 17:02:00,80.8,58.1,29.65,WSW,238,0.0,10.0,46,0.00,,,0.00,WUHU216DAVISVP2,2013-06-23 22:02:00,
2013-06-23 17:07:00,80.7,58.0,29.65,West,269,2.0,9.0,46,0.00,,,0.00,WUHU216DAVISVP2,2013-06-23 22:07:00,
2013-06-23 17:12:00,80.5,57.9,29.65,West,265,2.0,10.0,46,0.00,,,0.00,WUHU216DAVISVP2,2013-06-23 22:12:00,
2013-06-23 17:17:00,80.6,57.9,29.65,West,261,3.0,20.0,46,0.00,,,0.00,WUHU216DAVISVP2,2013-06-23 22:17:00,
2013-06-23 17:22:00,80.8,57.5,29.65,SSW,203,0.0,20.0,45,0.00,,,0.00,WUHU216DAVISVP2,2013-06-23 22:22:00,
2013-06-23 17:27:00,80.9,57.6,29.66,SW,232,1.0,10.0,45,0.00,,,0.00,WUHU216DAVISVP2,2013-06-23 22:27:00,
2013-06-23 17:32:00,80.8,56.2,29.66,WSW,248,0.0,10.0,43,0.00,,,0.00,WUHU216DAVISVP2,2013-06-23 22:32:00,
2013-06-23 17:37:00,80.4,57.1,29.66,WSW,240,1.0,14.0,45,0.00,,,0.00,WUHU216DAVISVP2,2013-06-23 22:37:00,
2013-06-23 17:42:00,80.9,56.9,29.66,WSW,253,0.0,14.0,44,0.00,,,0.00,WUHU216DAVISVP2,2013-06-23 22:42:00,
2013-06-23 17:47:00,80.3,56.4,29.66,WSW,257,2.0,9.0,44,0.00,,,0.00,WUHU216DAVISVP2,2013-06-23 22:47:00,
2013-06-23 17:52:00,79.7,57.7,29.66,West,265,0.0,8.0,47,0.00,,,0.00,WUHU216DAVISVP2,2013-06-23 22:52:00,
2013-06-23 17:57:00,80.0,57.4,29.66,West,273,2.0,13.0,46,0.00,,,0.00,WUHU216DAVISVP2,2013-06-23 22:57:00,
2013-06-23 18:02:00,80.0,56.8,29.67,WSW,252,1.0,13.0,45,0.00,,,0.00,WUHU216DAVISVP2,2013-06-23 23:02:00,
2013-06-23 18:07:00,79.9,57.3,29.67,West,277,10.0,10.0,46,0.00,,,0.00,WUHU216DAVISVP2,2013-06-23 23:07:00,
2013-06-23 18:12:00,79.7,56.5,29.67,West,270,1.0,11.0,45,0.00,,,0.00,WUHU216DAVISVP2,2013-06-23 23:12:00,
2013-06-23 18:17:00,79.8,56.6,29.67,West,279,1.0,12.0,45,0.00,,,0.00,WUHU216DAVISVP2,2013-06-23 23:17:00,
2013-06-23 18:22:00,79.7,55.9,29.67,West,275,0.0,12.0,44,0.00,,,0.00,WUHU216DAVISVP2,2013-06-23 23:22:00,
2013-06-23 18:27:00,79.7,55.9,29.67,West,275,0.0,11.0,44,0.00,,,0.00,WUHU216DAVISVP2,2013-06-23 23:27:00,
2013-06-23 18:32:00,79.7,55.9,29.67,West,267,0.0,6.0,44,0.00,,,0.00,WUHU216DAVISVP2,2013-06-23 23:32:00,
2013-06-23 18:37:00,79.5,55.7,29.68,WSW,246,0.0,9.0,44,0.00,,,0.00,WUHU216DAVISVP2,2013-06-23 23:37:00,
2013-06-23 18:42:00,79.2,56.0,29.68,West,260,1.0,11.0,45,0.00,,,0.00,WUHU216DAVISVP2,2013-06-23 23:42:00,
2013-06-23 18:47:00,78.9,55.8,29.68,West,269,0.0,11.0,45,0.00,,,0.00,WUHU216DAVISVP2,2013-06-23 23:47:00,
2013-06-23 18:52:00,78.7,55.6,29.68,WSW,248,0.0,6.0,45,0.00,,,0.00,WUHU216DAVISVP2,2013-06-23 23:52:00,
2013-06-23 18:57:00,78.7,55.6,29.69,WSW,251,2.0,6.0,45,0.00,,,0.00,WUHU216DAVISVP2,2013-06-23 23:57:00,
2013-06-23 19:02:00,78.4,55.9,29.69,WNW,283,1.0,6.0,46,0.00,,,0.00,WUHU216DAVISVP2,2013-06-24 00:02:00,
2013-06-23 19:07:00,77.8,55.4,29.69,West,277,1.0,10.0,46,0.00,,,0.00,WUHU216DAVISVP2,2013-06-24 00:07:00,
2013-06-23 19:12:00,76.9,55.2,29.69,West,281,0.0,10.0,47,0.00,,,0.00,WUHU216DAVISVP2,2013-06-24 00:12:00,
2013-06-23 19:17:00,76.5,56.0,29.69,West,261,0.0,4.0,49,0.00,,,0.00,WUHU216DAVISVP2,2013-06-24 00:17:00,
2013-06-23 19:22:00,76.7,56.8,29.69,WSW,249,0.0,4.0,50,0.00,,,0.00,WUHU216DAVISVP2,2013-06-24 00:22:00,
2013-06-23 19:27:00,77.3,58.4,29.70,West,259,0.0,4.0,52,0.00,,,0.00,WUHU216DAVISVP2,2013-06-24 00:27:00,
2013-06-23 19:32:00,77.1,58.8,29.70,West,271,0.0,5.0,53,0.00,,,0.00,WUHU216DAVISVP2,2013-06-24 00:32:00,
2013-06-23 19:37:00,76.6,58.3,29.70,NW,326,4.0,5.0,53,0.00,,,0.00,WUHU216DAVISVP2,2013-06-24 00:37:00,
2013-06-23 19:42:00,76.3,58.6,29.70,West,277,0.0,10.0,54,0.00,,,0.00,WUHU216DAVISVP2,2013-06-24 00:42:00,
2013-06-23 19:47:00,76.3,58.6,29.70,West,277,0.0,10.0,54,0.00,,,0.00,WUHU216DAVISVP2,2013-06-24 00:47:00,
2013-06-23 19:52:00,76.2,58.5,29.71,WNW,284,0.0,6.0,54,0.00,,,0.00,WUHU216DAVISVP2,2013-06-24 00:52:00,
2013-06-23 19:57:00,76.1,58.9,29.71,West,267,3.0,6.0,55,0.00,,,0.00,WUHU216DAVISVP2,2013-06-24 00:57:00,
2013-06-23 20:02:00,75.8,58.6,29.71,West,275,4.0,7.0,55,0.00,,,0.00,WUHU216DAVISVP2,2013-06-24 01:02:00,
2013-06-23 20:07:00,75.3,58.7,29.71,WNW,290,2.0,7.0,56,0.00,,,0.00,WUHU216DAVISVP2,2013-06-24 01:07:00,
2013-06-23 20:12:00,74.9,58.8,29.71,West,275,0.0,3.0,57,0.00,,,0.00,WUHU216DAVISVP2,2013-06-24 01:12:00,
2013-06-23 20:17:00,74.5,58.9,29.71,NW,305,0.0,2.0,58,0.00,,,0.00,WUHU216DAVISVP2,2013-06-24 01:17:00,
2013-06-23 20:22:00,74.3,58.3,29.72,WNW,284,0.0,4.0,57,0.00,,,0.00,WUHU216DAVISVP2,2013-06-24 01:22:00,
2013-06-23 20:27:00,74.1,58.1,29.72,West,273,0.0,4.0,57,0.00,,,0.00,WUHU216DAVISVP2,2013-06-24 01:27:00,
2013-06-23 20:32:00,74.0,58.0,29.72,West,275,0.0,3.0,57,0.00,,,0.00,WUHU216DAVISVP2,2013-06-24 01:32:00,
2013-06-23 20:37:00,73.9,58.4,29.72,NW,304,0.0,2.0,58,0.00,,,0.00,WUHU216DAVISVP2,2013-06-24 01:37:00,
2013-06-23 20:42:00,73.5,57.5,29.73,WNW,288,0.0,1.0,57,0.00,,,0.00,WUHU216DAVISVP2,2013-06-24 01:42:00,
2013-06-23 20:47:00,73.3,57.8,29.73,WNW,288,0.0,1.0,58,0.00,,,0.00,WUHU216DAVISVP2,2013-06-24 01:47:00,
2013-06-23 20:52:00,73.1,58.1,29.73,WNW,287,0.0,0.0,59,0.00,,,0.00,WUHU216DAVISVP2,2013-06-24 01:52:00,
2013-06-23 20:57:00,72.8,57.8,29.73,WNW,288,0.0,0.0,59,0.00,,,0.00,WUHU216DAVISVP2,2013-06-24 01:57:00,
2013-06-23 21:02:00,72.6,57.6,29.74,NW,309,0.0,1.0,59,0.00,,,0.00,WUHU216DAVISVP2,2013-06-24 02:02:00,
2013-06-23 21:07:00,72.2,57.3,29.74,WNW,298,0.0,1.0,59,0.00,,,0.00,WUHU216DAVISVP2,2013-06-24 02:07:00,
2013-06-23 21:12:00,71.9,57.0,29.74,WNW,282,0.0,2.0,59,0.00,,,0.00,WUHU216DAVISVP2,2013-06-24 02:12:00,
2013-06-23 21:17:00,71.6,57.2,29.74,West,277,0.0,2.0,60,0.00,,,0.00,WUHU216DAVISVP2,2013-06-24 02:17:00,
2013-06-23 21:22:00,71.3,57.3,29.75,West,279,0.0,2.0,61,0.00,,,0.00,WUHU216DAVISVP2,2013-06-24 02:22:00,
2013-06-23 21:27:00,71.0,57.5,29.75,WSW,256,0.0,1.0,62,0.00,,,0.00,WUHU216DAVISVP2,2013-06-24 02:27:00,
2013-06-23 21:32:00,70.6,57.6,29.75,WSW,257,0.0,1.0,63,0.00,,,0.00,WUHU216DAVISVP2,2013-06-24 02:32:00,
2013-06-23 21:37:00,70.2,57.6,29.75,WSW,257,0.0,1.0,64,0.00,,,0.00,WUHU216DAVISVP2,2013-06-24 02:37:00,
2013-06-23 21:42:00,69.7,57.6,29.75,WSW,256,0.0,0.0,65,0.00,,,0.00,WUHU216DAVISVP2,2013-06-24 02:42:00,
2013-06-23 21:47:00,69.3,57.6,29.76,WSW,257,0.0,0.0,66,0.00,,,0.00,WUHU216DAVISVP2,2013-06-24 02:47:00,
2013-06-23 21:52:00,68.9,57.3,29.76,WSW,257,0.0,0.0,66,0.00,,,0.00,WUHU216DAVISVP2,2013-06-24 02:52:00,
2013-06-23 21:57:00,68.5,57.3,29.76,WSW,257,0.0,0.0,67,0.00,,,0.00,WUHU216DAVISVP2,2013-06-24 02:57:00,
2013-06-23 22:02:00,68.1,57.3,29.76,WSW,256,0.0,0.0,68,0.00,,,0.00,WUHU216DAVISVP2,2013-06-24 03:02:00,
2013-06-23 22:07:00,67.8,57.0,29.76,WSW,257,0.0,0.0,68,0.00,,,0.00,WUHU216DAVISVP2,2013-06-24 03:07:00,
2013-06-23 22:12:00,67.4,56.6,29.76,WSW,257,0.0,0.0,68,0.00,,,0.00,WUHU216DAVISVP2,2013-06-24 03:12:00,
2013-06-23 22:17:00,67.1,56.8,29.77,WSW,257,0.0,0.0,69,0.00,,,0.00,WUHU216DAVISVP2,2013-06-24 03:17:00,
2013-06-23 22:22:00,66.6,56.7,29.77,WSW,256,0.0,0.0,70,0.00,,,0.00,WUHU216DAVISVP2,2013-06-24 03:22:00,
2013-06-23 22:27:00,66.2,56.3,29.77,WSW,257,0.0,0.0,70,0.00,,,0.00,WUHU216DAVISVP2,2013-06-24 03:27:00,
2013-06-23 22:32:00,65.9,56.4,29.77,WSW,257,0.0,0.0,71,0.00,,,0.00,WUHU216DAVISVP2,2013-06-24 03:32:00,
2013-06-23 22:37:00,65.7,56.2,29.77,WSW,257,0.0,0.0,71,0.00,,,0.00,WUHU216DAVISVP2,2013-06-24 03:37:00,
2013-06-23 22:42:00,65.5,56.4,29.77,WSW,256,0.0,0.0,72,0.00,,,0.00,WUHU216DAVISVP2,2013-06-24 03:42:00,
2013-06-23 22:47:00,65.4,56.3,29.77,WSW,257,0.0,0.0,72,0.00,,,0.00,WUHU216DAVISVP2,2013-06-24 03:47:00,
2013-06-23 22:52:00,65.2,56.1,29.77,WSW,257,0.0,0.0,72,0.00,,,0.00,WUHU216DAVISVP2,2013-06-24 03:52:00,
2013-06-23 22:57:00,65.0,56.3,29.77,WSW,257,0.0,0.0,73,0.00,,,0.00,WUHU216DAVISVP2,2013-06-24 03:57:00,
2013-06-23 23:01:00,64.9,56.2,29.77,WSW,257,0.0,0.0,73,0.00,,,0.00,WUHU216DAVISVP2,2013-06-24 04:01:00,
2013-06-23 23:06:00,64.6,55.9,29.77,WSW,257,0.0,0.0,73,0.00,,,0.00,WUHU216DAVISVP2,2013-06-24 04:06:00,
2013-06-23 23:11:00,64.4,56.1,29.77,WSW,256,0.0,0.0,74,0.00,,,0.00,WUHU216DAVISVP2,2013-06-24 04:11:00,
2013-06-23 23:16:00,64.3,56.0,29.77,WSW,256,0.0,0.0,74,0.00,,,0.00,WUHU216DAVISVP2,2013-06-24 04:16:00,
2013-06-23 23:21:00,64.2,55.9,29.76,WSW,256,0.0,0.0,74,0.00,,,0.00,WUHU216DAVISVP2,2013-06-24 04:21:00,
2013-06-23 23:26:00,64.1,55.8,29.76,WSW,257,0.0,0.0,74,0.00,,,0.00,WUHU216DAVISVP2,2013-06-24 04:26:00,
2013-06-23 23:31:00,64.0,55.7,29.76,WSW,257,0.0,0.0,74,0.00,,,0.00,WUHU216DAVISVP2,2013-06-24 04:31:00,
2013-06-23 23:36:00,64.0,56.0,29.76,WSW,256,0.0,0.0,75,0.00,,,0.00,WUHU216DAVISVP2,2013-06-24 04:36:00,
2013-06-23 23:41:00,63.9,55.9,29.76,WSW,257,0.0,0.0,75,0.00,,,0.00,WUHU216DAVISVP2,2013-06-24 04:41:00,
2013-06-23 23:46:00,63.9,55.9,29.76,WSW,257,0.0,0.0,75,0.00,,,0.00,WUHU216DAVISVP2,2013-06-24 04:46:00,
2013-06-23 23:51:00,63.9,55.9,29.76,WSW,257,0.0,0.0,75,0.00,,,0.00,WUHU216DAVISVP2,2013-06-24 04:51:00,
2013-06-23 23:56:00,63.8,56.2,29.76,WSW,257,0.0,0.0,76,0.00,,,0.00,WUHU216DAVISVP2,2013-06-24 04:56:00,